Terminal Aerodrome Forecast
Issued by NWS Wichita, KS

Current Version | Previous Version | Text Only | Print | Product List | Glossary On
Versions: 1 2 3 4 5 6 7 8 9 10 11 12 13 14 15 16 17 18 19
694
FTUS43 KICT 140906 AAB
TAFICT
TAF AMD
KICT 140906Z 1409/1506 35013KT P6SM OVC035
     FM141000 VRB04KT P6SM SCT020 BKN035
     FM141400 31005KT P6SM SCT030 BKN250
     FM141800 33011KT P6SM SCT250
     FM150000 30005KT P6SM SCT250=

USA.gov is the U.S. government's official web portal to all federal, state and local government web resources and services.